Location: Dulzura
(32.6442°N, 116.7814°W)
Time: 20:37:09
(UTC+00:00)

SKYMED 2 - Pass Details

Date: 07 December 2021
Orbit: 621 x 623 km, 97.9° (Epoch: 17 January)

Event Time Altitude Azimuth Distance (km) Brightness Sun altitude
Rises 13:43:56 0° 189° (S) 2,887 7.1 -11.0°
Reaches altitude 10° 13:46:18 10° 200° (SSW) 1,985 6.2 -10.5°
Maximum altitude 13:50:08 31° 262° (W) 1,105 4.4 -9.7°
Drops below altitude 10° 13:53:59 10° 325° (NW) 1,997 5.7 -9.0°
Enters shadow 13:55:30 - 333° (NNW) 2,562 6.3 -8.7°
